FW9404 Weather Reports


time (UTC)temp
C
wind
direction
speed
KPH
gust
KPH
rain 1hr
cm
rain 24hr
cm
rain mn
cm
humidity
%
barometer
mb
20260507040729 25 72 3.2 4.8 0.00 0.00 0.00 94 1013.5
20260507040225 25 96 6.4 8.0 0.00 0.00 0.00 94 1013.2
20260507035721 25 100 4.8 4.8 0.00 0.00 0.00 93 1013.4
20260507035217 25 90 4.8 4.8 0.00 0.00 0.00 93 1013.3
20260507034714 25 82 1.6 3.2 0.00 0.00 0.00 93 1013.2
20260507034212 25 93 4.8 4.8 0.00 0.00 0.00 93 1013.4
20260507033710 25 70 6.4 8.0 0.00 0.00 0.00 93 1013.1
20260507033207 25 42 6.4 8.0 0.00 0.00 0.00 93 1013.2
20260507032704 26 87 3.2 4.8 0.00 0.00 0.00 93 1013.1
20260507032200 26 75 8.0 11.3 0.00 0.00 0.00 93 1013.0
20260507031657 26 95 3.2 4.8 0.00 0.00 0.00 93 1012.9
20260507031153 26 76 8.0 11.3 0.00 0.00 0.00 93 1012.7
20260507030650 26 99 1.6 3.2 0.00 0.00 0.00 93 1012.8
20260507030148 25 93 3.2 4.8 0.00 0.00 0.00 93 1012.7
20260507025645 25 92 9.7 14.5 0.00 0.00 0.00 93 1012.5
20260507025142 26 78 8.0 8.0 0.00 0.00 0.00 93 1012.4
20260507024640 26 85 8.0 11.3 0.00 0.00 0.00 93 1012.5
20260507024137 26 67 6.4 11.3 0.00 0.00 0.00 93 1012.1
20260507023632 26 107 4.8 8.0 0.00 0.00 0.00 93 1012.2
20260507023130 26 102 8.0 11.3 0.00 0.00 0.00 92 1012.2
20260507022627 26 135 11.3 14.5 0.00 0.00 0.00 92 1012.1
20260507022122 26 102 8.0 11.3 0.00 0.00 0.00 92 1012.1
20260507021619 26 91 6.4 11.3 0.00 0.00 0.00 92 1011.9
20260507021115 26 102 8.0 11.3 0.00 0.00 0.00 92 1011.8
20260507020613 26 103 4.8 8.0 0.00 0.00 0.00 92 1011.8
20260507020109 26 98 11.3 16.1 0.00 0.00 0.00 92 1011.4
20260507015608 26 133 9.7 16.1 0.00 0.00 0.00 92 1011.7
20260507015105 26 100 8.0 11.3 0.00 0.00 0.00 91 1011.6
20260507014601 26 89 11.3 16.1 0.00 0.00 0.00 91 1011.2
20260507014057 26 95 6.4 8.0 0.00 0.00 0.00 91 1011.3
20260507013554 26 91 9.7 11.3 0.00 0.00 0.00 91 1011.1
20260507013051 26 96 8.0 8.0 0.00 0.00 0.00 91 1011.1
20260507012548 27 91 8.0 11.3 0.00 0.00 0.00 91 1011.0
20260507012044 27 124 8.0 11.3 0.00 0.00 0.00 91 1010.6
20260507011542 27 96 12.9 16.1 0.00 0.00 0.00 90 1010.8
20260507011038 27 107 11.3 16.1 0.00 0.00 0.00 90 1010.7
20260507010532 27 129 12.9 16.1 0.00 0.00 0.00 90 1010.7
20260507010029 27 114 12.9 19.3 0.00 0.00 0.00 90 1010.7
20260507005527 27 91 9.7 14.5 0.00 0.00 0.00 89 1010.5
20260507005023 27 107 11.3 14.5 0.00 0.00 0.00 89 1010.7
20260507004520 27 108 9.7 11.3 0.00 0.00 0.00 89 1010.6
20260507004017 27 111 11.3 16.1 0.00 0.00 0.00 89 1010.5
20260507003512 27 83 9.7 11.3 0.00 0.00 0.00 88 1010.5
20260507003008 27 87 4.8 8.0 0.00 0.00 0.00 88 1010.6
20260507002505 28 99 9.7 11.3 0.00 0.00 0.00 88 1010.6
20260507002001 28 101 9.7 11.3 0.00 0.00 0.00 88 1010.2
20260507001457 28 81 16.1 24.1 0.00 0.00 0.00 87 1010.2
20260507000955 28 90 14.5 19.3 0.00 0.00 0.00 87 1009.9
20260507000451 28 110 9.7 14.5 0.00 0.00 0.00 87 1009.9
20260506235946 28 66 17.7 22.5 0.00 0.00 0.00 87 1009.8
20260506235444 28 97 17.7 22.5 0.00 0.00 0.00 86 1010.2
20260506234939 28 101 19.3 22.5 0.00 0.00 0.00 86 1010.1
20260506234437 28 99 16.1 22.5 0.00 0.00 0.00 86 1009.9
20260506233934 28 57 11.3 14.5 0.00 0.00 0.00 86 1009.7
20260506233431 28 132 14.5 19.3 0.00 0.00 0.00 86 1009.6
20260506232928 28 100 14.5 19.3 0.00 0.00 0.00 85 1009.7
20260506232424 29 179 11.3 14.5 0.00 0.00 0.00 85 1009.5
20260506231920 29 111 16.1 22.5 0.00 0.00 0.00 84 1009.4
20260506231418 29 81 12.9 16.1 0.00 0.00 0.00 84 1009.4
20260506230915 30 144 12.9 16.1 0.00 0.00 0.00 83 1009.4
20260506230411 30 66 11.3 14.5 0.00 0.00 0.00 83 1009.4
20260506225908 30 104 14.5 19.3 0.00 0.00 0.00 82 1009.4
20260506225405 30 102 9.7 14.5 0.00 0.00 0.00 82 1009.1
20260506224902 30 63 8.0 11.3 0.00 0.00 0.00 82 1009.3
20260506224359 30 119 11.3 14.5 0.00 0.00 0.00 81 1009.3
20260506223855 30 123 12.9 16.1 0.00 0.00 0.00 80 1009.1
20260506223350 30 89 11.3 14.5 0.00 0.00 0.00 80 1009.2
20260506222848 30 78 4.8 8.0 0.00 0.00 0.00 80 1009.2
20260506222344 30 77 8.0 14.5 0.00 0.00 0.00 80 1009.0
20260506221842 31 135 4.8 4.8 0.00 0.00 0.00 79 1009.2
20260506221339 31 117 14.5 16.1 0.00 0.00 0.00 78 1009.3
20260506220836 31 90 1.6 3.2 0.00 0.00 0.00 77 1009.1
20260506220332 31 107 6.4 11.3 0.00 0.00 0.00 77 1009.4
20260506215829 31 126 11.3 14.5 0.00 0.00 0.00 76 1009.3
20260506215324 31 158 4.8 8.0 0.00 0.00 0.00 78 1009.3
20260506214820 31 54 8.0 11.3 0.00 0.00 0.00 78 1009.3
20260506214317 31 116 8.0 11.3 0.00 0.00 0.00 78 1009.3
20260506213816 31 104 1.6 3.2 0.00 0.00 0.00 77 1009.2
20260506213313 31 71 8.0 11.3 0.00 0.00 0.00 78 1009.4
20260506212810 31 76 9.7 11.3 0.00 0.00 0.00 78 1009.3
20260506212307 31 52 8.0 11.3 0.00 0.00 0.00 79 1009.3
20260506211800 30 94 6.4 8.0 0.00 0.00 0.00 80 1009.8
20260506211257 30 88 1.6 3.2 0.00 0.00 0.00 80 1009.5
20260506210754 30 96 9.7 14.5 0.00 0.00 0.00 81 1009.7
20260506210251 30 83 3.2 8.0 0.00 0.00 0.00 80 1009.7
20260506205748 30 133 8.0 11.3 0.00 0.00 0.00 80 1009.7
20260506205244 30 92 8.0 11.3 0.00 0.00 0.00 81 1009.7
20260506204741 30 153 9.7 11.3 0.00 0.00 0.00 81 1009.8
20260506204238 30 118 11.3 14.5 0.00 0.00 0.00 82 1009.8
20260506203736 30 117 12.9 16.1 0.00 0.00 0.00 81 1009.7
20260506203233 30 98 11.3 14.5 0.00 0.00 0.00 81 1009.8
20260506202730 30 130 11.3 16.1 0.00 0.00 0.00 83 1009.9
20260506202227 29 168 9.7 11.3 0.00 0.00 0.00 83 1009.8
20260506201724 29 87 8.0 8.0 0.00 0.00 0.00 84 1009.9
20260506201220 29 141 9.7 14.5 0.00 0.00 0.00 84 1010.0
20260506200717 29 91 8.0 16.1 0.00 0.00 0.00 84 1010.1
20260506200208 29 103 6.4 8.0 0.00 0.00 0.00 84 1010.2
20260506195705 29 49 14.5 24.1 0.00 0.00 0.00 84 1010.2
20260506195201 29 131 14.5 22.5 0.00 0.00 0.00 84 1010.2
20260506194659 29 98 8.0 11.3 0.00 0.00 0.00 83 1010.3
20260506194155 29 95 19.3 22.5 0.00 0.00 0.00 83 1010.4
20260506193652 30 135 14.5 19.3 0.00 0.00 0.00 82 1010.5
20260506193149 30 106 11.3 16.1 0.00 0.00 0.00 82 1010.6
20260506192646 30 87 11.3 11.3 0.00 0.00 0.00 81 1010.5
20260506192142 30 122 4.8 8.0 0.00 0.00 0.00 80 1010.3
20260506191639 31 132 9.7 14.5 0.00 0.00 0.00 77 1010.5
20260506191135 31 95 0.0 0.0 0.00 0.00 0.00 74 1010.6
20260506190633 31 120 0.0 0.0 0.00 0.00 0.00 74 1010.6
20260506190129 31 161 3.2 3.2 0.00 0.00 0.00 75 1010.8
20260506185627 31 155 3.2 4.8 0.00 0.00 0.00 74 1010.6
20260506185123 31 186 4.8 8.0 0.00 0.00 0.00 74 1010.6
20260506184620 32 187 0.0 3.2 0.00 0.00 0.00 73 1010.5
20260506184117 32 209 8.0 8.0 0.00 0.00 0.00 74 1010.8
20260506183614 31 118 0.0 0.0 0.00 0.00 0.00 74 1010.7
20260506183110 31 141 4.8 4.8 0.00 0.00 0.00 75 1010.9
20260506182608 31 151 1.6 3.2 0.00 0.00 0.00 76 1010.9
20260506182104 31 152 8.0 8.0 0.00 0.00 0.00 76 1010.8
20260506181602 31 86 0.0 0.0 0.00 0.00 0.00 75 1011.0
20260506181059 31 171 3.2 3.2 0.00 0.00 0.00 75 1010.9
20260506180556 31 180 4.8 4.8 0.00 0.00 0.00 75 1010.9
20260506180052 31 161 8.0 11.3 0.00 0.00 0.00 75 1010.9
20260506175548 30 200 4.8 4.8 0.00 0.00 0.00 77 1011.1
20260506175045 31 183 3.2 4.8 0.00 0.00 0.00 77 1010.9
20260506174544 31 263 6.4 8.0 0.00 0.00 0.00 75 1010.9
20260506174039 31 324 8.0 8.0 0.00 0.00 0.00 74 1011.1
20260506173537 31 196 4.8 4.8 0.00 0.00 0.00 77 1011.0
20260506173034 31 236 11.3 16.1 0.00 0.00 0.00 76 1011.0
20260506172532 31 215 11.3 14.5 0.00 0.00 0.00 77 1010.9
20260506172027 31 235 9.7 14.5 0.00 0.00 0.00 77 1010.8
20260506171525 30 194 6.4 8.0 0.00 0.00 0.00 78 1011.0
20260506171022 30 198 12.9 16.1 0.00 0.00 0.00 79 1011.0
20260506170520 30 255 12.9 14.5 0.00 0.00 0.00 80 1010.9
20260506170012 29 165 6.4 8.0 0.00 0.00 0.00 81 1010.9
20260506165510 28 210 8.0 11.3 0.00 0.00 0.00 83 1010.9
20260506165006 28 166 4.8 4.8 0.00 0.00 0.00 84 1011.1
20260506164503 28 228 4.8 4.8 0.00 0.00 0.00 85 1011.1
20260506164000 28 166 8.0 11.3 0.00 0.00 0.00 86 1011.0
20260506163455 27 165 11.3 14.5 0.00 0.00 0.00 87 1011.0
20260506162950 27 175 11.3 14.5 0.00 0.00 0.00 87 1011.2
20260506162448 27 202 6.4 8.0 0.00 0.00 0.00 87 1011.2
20260506161945 27 198 6.4 8.0 0.00 0.00 0.00 89 1011.1
20260506161443 27 161 8.0 8.0 0.00 0.00 0.00 89 1011.2
20260506160940 27 191 8.0 8.0 0.00 0.00 0.00 90 1011.0
20260506160438 27 154 8.0 8.0 0.00 0.00 0.00 90 1011.0
20260506155935 27 173 9.7 14.5 0.00 0.00 0.00 89 1011.0
20260506155432 27 180 8.0 11.3 0.00 0.00 0.00 89 1010.9
20260506153554 27 190 11.3 16.1 0.00 0.00 0.00 89 1010.6
20260506153051 27 215 9.7 11.3 0.00 0.00 0.00 90 1010.7
20260506152548 27 173 11.3 14.5 0.00 0.00 0.00 90 1010.5
20260506152046 27 173 14.5 22.5 0.00 0.00 0.00 90 1010.6
20260506151544 26 200 6.4 11.3 0.00 0.00 0.00 90 1010.5
20260506151041 26 143 12.9 16.1 0.00 0.00 0.00 91 1010.5
20260506150537 26 183 12.9 14.5 0.00 0.00 0.00 91 1010.4
20260506150034 26 161 16.1 24.1 0.00 0.00 0.00 91 1010.7
20260506145531 26 158 8.0 11.3 0.00 0.00 0.00 91 1010.7
20260506145028 26 162 11.3 16.1 0.00 0.00 0.00 91 1010.6
20260506144525 26 148 14.5 22.5 0.00 0.00 0.00 91 1010.7
20260506144022 26 163 11.3 14.5 0.00 0.00 0.00 91 1010.6
20260506143520 26 162 12.9 16.1 0.00 0.00 0.00 91 1010.7
20260506143019 26 233 14.5 22.5 0.00 0.00 0.00 91 1010.6
20260506142516 26 121 8.0 11.3 0.00 0.00 0.00 91 1010.8
20260506142014 26 176 6.4 8.0 0.00 0.00 0.00 92 1010.6
20260506141511 26 160 11.3 14.5 0.00 0.00 0.00 92 1010.8
20260506141009 26 163 11.3 16.1 0.00 0.00 0.00 92 1010.9
20260506140506 26 137 12.9 16.1 0.00 0.00 0.00 92 1010.7
20260506140004 26 123 11.3 14.5 0.00 0.00 0.00 92 1010.7
20260506135500 26 168 12.9 16.1 0.00 0.00 0.00 92 1010.7
20260506134956 26 123 3.2 3.2 0.00 0.00 0.00 92 1010.9
20260506134452 26 145 8.0 11.3 0.00 0.00 0.00 92 1010.6
20260506133949 26 148 4.8 11.3 0.00 0.00 0.00 92 1010.7
20260506133446 26 153 11.3 14.5 0.00 0.00 0.00 92 1010.6
20260506132943 26 136 4.8 8.0 0.00 0.00 0.00 92 1010.7
20260506132440 25 144 9.7 11.3 0.00 0.00 0.00 92 1010.5
20260506131938 25 177 8.0 8.0 0.00 0.00 0.00 92 1010.8
20260506131434 25 119 3.2 4.8 0.00 0.00 0.00 92 1010.5
20260506130931 25 150 4.8 4.8 0.00 0.00 0.00 92 1010.6
20260506130427 25 149 3.2 3.2 0.00 0.00 0.00 92 1010.4
20260506125925 25 168 4.8 8.0 0.00 0.00 0.00 92 1010.4
20260506125424 25 152 11.3 16.1 0.00 0.00 0.00 92 1010.5
20260506124922 25 140 4.8 4.8 0.00 0.00 0.00 92 1010.4
20260506124419 25 137 6.4 8.0 0.00 0.00 0.00 92 1010.3
20260506123916 25 150 11.3 14.5 0.00 0.00 0.00 92 1010.2
20260506123414 25 96 4.8 8.0 0.00 0.00 0.00 92 1010.1
20260506122911 25 143 11.3 11.3 0.00 0.00 0.00 92 1010.0
20260506122408 25 99 6.4 8.0 0.00 0.00 0.00 92 1010.2
20260506121907 25 138 6.4 8.0 0.00 0.00 0.00 92 1010.1
20260506121403 25 126 12.9 16.1 0.00 0.00 0.00 92 1010.0
20260506120900 25 123 12.9 16.1 0.00 0.00 0.00 93 1009.9
20260506120358 25 116 6.4 8.0 0.00 0.00 0.00 93 1009.8
20260506115855 25 113 3.2 4.8 0.00 0.00 0.00 93 1009.9
20260506115353 25 109 11.3 11.3 0.00 0.00 0.00 93 1009.7
20260506114851 25 105 1.6 3.2 0.00 0.00 0.00 93 1009.9
20260506114348 25 101 3.2 3.2 0.00 0.00 0.00 93 1009.8
20260506113847 25 108 6.4 8.0 0.00 0.00 0.00 93 1009.9
20260506113344 25 130 4.8 4.8 0.00 0.00 0.00 93 1009.6
20260506112840 25 111 6.4 8.0 0.00 0.00 0.00 92 1009.9
20260506112338 25 124 4.8 8.0 0.00 0.00 0.00 92 1009.8
20260506111835 25 100 6.4 8.0 0.00 0.00 0.00 92 1009.6
20260506111333 25 90 4.8 4.8 0.00 0.00 0.00 92 1009.7
20260506110830 25 97 1.6 3.2 0.00 0.00 0.00 92 1009.7
20260506110327 25 127 4.8 8.0 0.00 0.00 0.00 92 1009.7
20260506105824 25 94 3.2 3.2 0.00 0.00 0.00 92 1009.6
20260506105320 25 105 3.2 3.2 0.00 0.00 0.00 92 1009.6
20260506104818 25 91 6.4 11.3 0.00 0.00 0.00 92 1009.3
20260506104316 25 86 6.4 8.0 0.00 0.00 0.00 92 1009.3
20260506103813 25 101 4.8 4.8 0.00 0.00 0.00 92 1009.6
20260506103310 25 103 4.8 4.8 0.00 0.00 0.00 92 1009.6
20260506102808 25 106 4.8 4.8 0.00 0.00 0.00 92 1009.5
20260506102306 25 96 4.8 4.8 0.00 0.00 0.00 92 1009.6
20260506101803 25 131 4.8 4.8 0.00 0.00 0.00 92 1009.5
20260506101258 25 140 4.8 4.8 0.00 0.00 0.00 92 1009.5
20260506100757 25 125 4.8 4.8 0.00 0.00 0.00 92 1009.4
20260506100255 25 103 0.0 0.0 0.00 0.00 0.00 92 1009.4
20260506095753 25 144 8.0 8.0 0.00 0.00 0.00 92 1009.5
20260506095249 25 122 1.6 3.2 0.00 0.00 0.00 92 1009.5
20260506094746 25 134 4.8 4.8 0.00 0.00 0.00 92 1009.3
20260506094245 25 112 6.4 8.0 0.00 0.00 0.00 92 1009.3
20260506093743 25 167 14.5 16.1 0.00 0.00 0.00 92 1009.4
20260506093239 25 124 4.8 4.8 0.00 0.00 0.00 92 1009.3
20260506092737 25 95 8.0 11.3 0.00 0.00 0.00 92 1009.4
20260506092235 25 112 6.4 8.0 0.00 0.00 0.00 92 1009.2
20260506091732 25 130 8.0 11.3 0.00 0.00 0.00 92 1009.3
20260506091230 25 121 4.8 8.0 0.00 0.00 0.00 92 1009.1
20260506090727 25 161 11.3 14.5 0.00 0.00 0.00 92 1009.2
20260506090224 25 140 9.7 11.3 0.00 0.00 0.00 92 1009.1
20260506085721 25 159 11.3 14.5 0.00 0.00 0.00 92 1009.4
20260506085217 25 113 6.4 8.0 0.00 0.00 0.00 92 1009.0
20260506084714 25 140 12.9 16.1 0.00 0.00 0.00 92 1009.2
20260506084210 25 179 6.4 8.0 0.00 0.00 0.00 92 1009.0
20260506083707 25 160 17.7 24.1 0.00 0.00 0.00 92 1008.9
20260506083205 25 130 14.5 19.3 0.00 0.00 0.00 92 1008.9
20260506082702 25 179 8.0 14.5 0.00 0.00 0.00 92 1009.1
20260506082202 25 206 8.0 14.5 0.00 0.00 0.00 92 1008.7
20260506081700 25 188 11.3 14.5 0.00 0.00 0.00 92 1008.8
20260506081158 25 159 11.3 16.1 0.00 0.00 0.00 92 1009.2
20260506080656 25 165 8.0 8.0 0.00 0.00 0.00 91 1009.0
20260506080152 25 131 12.9 16.1 0.00 0.00 0.00 91 1009.2
20260506073136 25 138 12.9 19.3 0.00 0.00 0.00 91 1009.2
20260506072632 25 182 14.5 19.3 0.00 0.00 0.00 91 1009.4
20260506072131 25 169 16.1 19.3 0.00 0.00 0.00 91 1009.1
20260506071628 25 147 19.3 24.1 0.00 0.00 0.00 91 1009.0
20260506071125 25 149 16.1 24.1 0.00 0.00 0.00 91 1009.0
20260506070622 25 146 17.7 22.5 0.00 0.00 0.00 91 1009.4
20260506070119 25 192 11.3 16.1 0.00 0.00 0.00 91 1009.3
20260506062056 25 165 14.5 16.1 0.00 0.00 0.00 91 1009.8
20260506061552 25 143 12.9 14.5 0.00 0.00 0.00 91 1009.9
20260506061050 25 158 17.7 19.3 0.00 0.00 0.00 91 1009.7
20260506060548 25 174 17.7 22.5 0.00 0.00 0.00 91 1010.0
20260506051017 25 202 16.1 24.1 0.00 0.00 0.00 92 1010.3
20260506050515 25 167 9.7 19.3 0.00 0.00 0.00 92 1010.3
20260506045005 25 151 16.1 22.5 0.00 0.00 0.00 92 1010.0
20260506044504 25 171 17.7 19.3 0.00 0.00 0.00 92 1010.3
20260506044000 25 148 8.0 11.3 0.00 0.00 0.00 92 1010.4
20260506043457 25 127 14.5 16.1 0.00 0.00 0.00 92 1010.1
20260506042955 25 157 11.3 19.3 0.00 0.00 0.00 92 1010.1
20260506042454 25 146 9.7 14.5 0.00 0.00 0.00 92 1010.1
20260506041952 25 170 22.5 27.4 0.00 0.00 0.00 92 1010.2
20260506041450 25 195 9.7 14.5 0.00 0.00 0.00 92 1009.9